[[{"header":{"parameterUnit":"m.s-1","parameterCategory":1,"la1":30.2991,"la2":30.254,"lo1":-89.0895,"lo2":-89.0444,"dy":0.0017,"dx":0.0017,"nx":28,"ny":28,"refTime":"2025-04-17T03:00:00:Z","depth":0,"parameterNumber":2,"parameterNumberName":"U-component_of_WINDS"},"data":[0,0,0,0,0,0,0,0,0,0,0,0,0,0,0,0,0,0,0,0,0,0,0,0,0,0,0,0,0,0,0,0,0,0,0,0,0,0,0,0,0,0,0,0,0,0,0,0,0,0,0,0,0,0,0,0,0,0,1.2938,1.2939,0,1.3043,1.3044,1.3045,1.3076,1.3075,1.3075,1.3074,1.3181,1.3184,1.3187,0,0,0,0,0,0,0,0,0,0,0,0,0,1.276,1.2763,1.2938,1.2939,1.294,1.3043,1.3044,1.3046,1.3076,1.3075,1.3075,1.3074,1.318,1.3184,1.3188,0,0,0,0,0,0,0,0,0,0,0,0,0,1.2848,1.2764,1.2938,1.2968,1.2972,1.3043,1.3044,1.3046,1.3076,1.3075,1.3075,1.3074,1.3178,1.3183,1.3188,1.3236,0,0,1.3204,1.3206,0,0,0,0,0,0,0,0,1.2843,1.2855,1.2962,1.2966,1.297,1.3046,1.3021,1.311,1.3077,1.3037,1.3074,1.3073,1.3136,1.3145,1.3166,1.3241,1.3246,1.3204,1.3207,1.3209,1.3211,0,0,0,0,0,0,0,1.2837,1.285,1.2979,1.2964,1.2969,1.2975,1.2987,1.3038,1.309,1.304,1.3042,1.3055,1.3138,1.3161,1.3169,1.3247,1.3204,1.3208,1.3212,1.3213,1.3364,1.3365,0,0,0,0,0,0,1.2826,1.2845,1.2976,1.2983,1.2904,1.2979,1.2992,1.3022,1.3089,1.3099,1.3055,1.3056,1.3153,1.3163,1.3173,1.3232,1.3209,1.3214,1.3217,1.3363,1.3364,1.3365,0,0,0,0,0,0,1.2822,1.2838,1.2972,1.2915,1.2932,1.2983,1.3017,1.3025,1.3048,1.3101,1.311,1.3069,1.3153,1.3166,1.322,1.3236,1.3216,1.3221,1.3361,1.3363,1.3364,1.335,0,0,0,0,0,0,1.2817,1.2836,1.2856,1.2915,1.2935,1.3018,1.3018,1.3027,1.3057,1.3058,1.3117,1.3125,1.3153,1.3212,1.3225,1.3242,1.3225,1.336,1.3362,1.3364,1.335,1.3351,1.3352,0,0,0,0,0,1.2811,1.2848,1.2856,1.2872,1.2961,1.3019,1.303,1.3062,1.3058,1.3077,1.3111,1.3124,1.3232,1.3217,1.3232,1.3251,1.3359,1.3362,1.3364,1.3349,1.3351,1.3352,0,0,0,0,0,0,1.2789,1.2856,1.2867,1.2924,1.2965,1.3024,1.3049,1.3063,1.3106,1.3106,1.3143,1.3156,1.3206,1.3234,1.3217,1.33,1.3296,1.3301,1.328,1.3282,1.3283,1.3275,1.3229,0,0,0,0,0,1.2791,1.2833,1.2889,1.2934,1.2954,1.2998,1.3025,1.3045,1.3089,1.3107,1.3145,1.3186,1.323,1.3257,1.33,1.3354,1.3366,1.3374,1.3375,1.3376,1.338,1.3408,1.3412,1.3372,1.3372,1.3372,0,0,1.2795,1.2837,1.2862,1.2931,1.2965,1.3007,1.3013,1.3057,1.3088,1.3114,1.3166,1.3195,1.3244,1.3297,1.3322,1.3322,1.3394,1.3379,1.338,1.3383,1.3411,1.3415,1.3418,1.3374,1.3373,1.3373,0,0,1.2824,1.2861,1.2902,1.2936,1.2988,1.3016,1.3026,1.3082,1.3102,1.3155,1.3175,1.3211,1.3286,1.3319,1.3346,1.3385,1.3398,1.3398,1.3405,1.3432,1.3435,1.3438,1.3451,1.3455,1.3402,1.3402,1.3402,0,1.2823,1.2887,1.2921,1.2964,1.2992,1.3018,1.3058,1.3089,1.3152,1.3171,1.317,1.3262,1.3297,1.3357,1.3367,1.3388,1.3399,1.3391,1.3432,1.3436,1.3439,1.3451,1.3456,1.3401,1.3401,1.3401,1.3401,0,1.2882,1.2926,1.2953,1.3012,1.3045,1.3086,1.3124,1.3153,1.317,1.3198,1.3251,1.3293,1.3344,1.336,1.3378,1.3422,1.342,1.3425,1.3422,1.3442,1.3454,1.3459,1.3401,1.3401,1.3401,1.3401,0,0,1.2901,1.2978,1.2987,1.3014,1.3072,1.3106,1.3147,1.3197,1.322,1.3262,1.3297,1.3358,1.3362,1.3392,1.3414,1.3438,1.3464,1.344,1.3441,1.3441,1.3513,1.3508,1.3513,1.3472,1.3474,1.3474,1.3508,0,1.2937,1.3013,1.3043,1.3104,1.3144,1.3167,1.3203,1.3242,1.3269,1.3305,1.3335,1.3377,1.3381,1.3399,1.3423,1.3455,1.3478,1.3453,1.3504,1.3505,1.349,1.352,1.3516,1.3546,1.3514,1.3514,1.3515,0,1.2988,1.303,1.3095,1.3146,1.3164,1.3196,1.3243,1.3279,1.3322,1.334,1.3373,1.3392,1.3435,1.3429,1.3488,1.347,1.3492,1.3511,1.3513,1.3518,1.3511,1.3525,1.3556,1.356,1.3523,1.3522,1.3522,0,1.2993,1.3066,1.3114,1.3136,1.3198,1.3219,1.3246,1.3289,1.3316,1.3357,1.3375,1.342,1.3444,1.3478,1.3509,1.3502,1.3564,1.3561,1.3579,1.3578,1.3591,1.3589,1.3625,1.3607,1.3606,1.3606,1.3606,0,1.3029,1.3067,1.3117,1.3146,1.3189,1.3223,1.3264,1.3292,1.333,1.3364,1.3387,1.3419,1.3458,1.3494,1.3518,1.3562,1.3573,1.3588,1.3593,1.3585,1.3583,1.36,1.3598,1.3608,1.3607,1.3607,1.3607,0,1.3042,1.3077,1.313,1.3184,1.3198,1.3227,1.3273,1.3301,1.3328,1.3371,1.3383,1.3426,1.3469,1.3503,1.356,1.3576,1.3622,1.3629,1.3607,1.361,1.3625,1.3623,1.3672,1.368,1.3657,1.3657,1.3657,0,1.3062,1.3092,1.3148,1.3173,1.3199,1.3239,1.3266,1.33,1.3328,1.3379,1.34,1.3445,1.3483,1.3551,1.3587,1.3629,1.3637,1.3651,1.3644,1.3634,1.3636,1.3633,1.3636,1.3652,1.3652,1.3652,1.3652,0,1.3093,1.3108,1.3148,1.3193,1.3225,1.3262,1.3299,1.3318,1.3358,1.3388,1.3432,1.3462,1.3519,1.3562,1.3609,1.3635,1.365,1.3654,1.366,1.3652,1.3637,1.3644,1.3608,1.3653,1.3653,1.3653,1.3653,1.3653,1.3109,1.3136,1.318,1.3222,1.3254,1.3288,1.3316,1.3347,1.3385,1.3434,1.3452,1.3497,1.3538,1.3602,1.3628,1.3663,1.3664,1.3673,1.3676,1.3677,1.3675,1.3632,1.3672,1.3672,1.3672,1.3672,1.3672,0,1.314,1.3169,1.3208,1.3259,1.3292,1.3303,1.3344,1.3371,1.3411,1.3448,1.3484,1.3534,1.3576,1.3615,1.3658,1.3679,1.3687,1.3689,1.3688,1.3693,1.3673,1.3663,1.3682,1.3682,1.3682,1.3682,1.3682,1.3682,1.316,1.3206,1.3226,1.3287,1.3315,1.336,1.3382,1.3413,1.3443,1.3498,1.3533,1.3557,1.3595,1.3641,1.368,1.369,1.3704,1.3705,1.3716,1.3696,1.3695,1.3693,1.3684,1.3708,1.3708,1.3734,1.3734,1.3734]},{"header":{"parameterUnit":"m.s-1","parameterCategory":1,"la1":30.2991,"la2":30.254,"lo1":-89.0895,"lo2":-89.0444,"dy":0.0017,"dx":0.0017,"nx":28,"ny":28,"refTime":"2025-04-17T03:00:00:Z","depth":0,"parameterNumber":3,"parameterNumberName":"V-component_of_WINDS"},"data":[0,0,0,0,0,0,0,0,0,0,0,0,0,0,0,0,0,0,0,0,0,0,0,0,0,0,0,0,0,0,0,0,0,0,0,0,0,0,0,0,0,0,0,0,0,0,0,0,0,0,0,0,0,0,0,0,0,0,3.098,3.098,0,3.0991,3.0991,3.0991,3.0939,3.0937,3.0935,3.0934,3.0945,3.0947,3.0949,0,0,0,0,0,0,0,0,0,0,0,0,0,3.0911,3.0913,3.098,3.098,3.098,3.0991,3.0991,3.0991,3.0939,3.0937,3.0935,3.0933,3.0945,3.0947,3.0949,0,0,0,0,0,0,0,0,0,0,0,0,0,3.0934,3.0913,3.098,3.0955,3.0953,3.0991,3.0991,3.0991,3.0939,3.0937,3.0935,3.0932,3.0944,3.0946,3.0949,3.1011,0,0,3.0957,3.0958,0,0,0,0,0,0,0,0,3.0932,3.0936,3.0959,3.0957,3.0955,3.0961,3.0971,3.0998,3.094,3.0944,3.0934,3.0931,3.0952,3.0954,3.0961,3.1011,3.1012,3.0957,3.0959,3.096,3.096,0,0,0,0,0,0,0,3.0931,3.0935,3.0984,3.0959,3.0957,3.0943,3.0944,3.0976,3.0961,3.0944,3.094,3.0942,3.0951,3.0959,3.0961,3.1012,3.0957,3.0959,3.0961,3.0962,3.111,3.1112,0,0,0,0,0,0,3.0933,3.0934,3.0984,3.0984,3.0938,3.0946,3.0947,3.0961,3.0961,3.0958,3.0944,3.094,3.0955,3.0958,3.0961,3.1031,3.096,3.0962,3.0964,3.1108,3.1111,3.1113,0,0,0,0,0,0,3.0931,3.0938,3.0983,3.0958,3.0963,3.095,3.0966,3.0963,3.0971,3.0961,3.0958,3.0955,3.0954,3.0958,3.0998,3.1031,3.0963,3.0966,3.1105,3.1109,3.1112,3.1173,0,0,0,0,0,0,3.093,3.0937,3.0961,3.0959,3.0965,3.1021,3.0968,3.0965,3.0975,3.097,3.097,3.0968,3.0952,3.0995,3.1001,3.1033,3.0968,3.1102,3.1107,3.1111,3.1168,3.1178,3.1187,0,0,0,0,0,3.0927,3.0979,3.0963,3.0969,3.0994,3.1023,3.1026,3.1007,3.0978,3.1001,3.0995,3.0968,3.1027,3.0999,3.1006,3.1039,3.11,3.1105,3.1111,3.1164,3.1176,3.1187,0,0,0,0,0,0,3.0985,3.0978,3.096,3.1013,3.1019,3.1014,3.1043,3.1021,3.1035,3.1029,3.1005,3.1005,3.1049,3.1049,3.1018,3.1098,3.1058,3.1065,3.1096,3.1108,3.1117,3.1116,3.097,0,0,0,0,0,3.1004,3.1028,3.1021,3.1067,3.1071,3.1057,3.1068,3.1053,3.1058,3.106,3.1057,3.1063,3.1082,3.1095,3.1113,3.1168,3.1166,3.1194,3.1204,3.1212,3.1217,3.1244,3.1256,3.1131,3.1131,3.1131,0,0,3.1044,3.1042,3.1059,3.1079,3.1082,3.1106,3.1059,3.1088,3.1105,3.1065,3.1102,3.11,3.1104,3.1152,3.1173,3.1153,3.1252,3.1219,3.1225,3.1226,3.1251,3.1263,3.1273,3.1135,3.1134,3.1133,0,0,3.1127,3.113,3.1167,3.1171,3.1175,3.1165,3.1174,3.1172,3.1169,3.1206,3.1175,3.1196,3.1231,3.1234,3.1241,3.1324,3.1299,3.1331,3.138,3.1406,3.1416,3.1424,3.1452,3.1462,3.1337,3.1337,3.1337,0,3.1175,3.1211,3.119,3.1219,3.1228,3.1192,3.1229,3.1234,3.1244,3.125,3.1228,3.1269,3.127,3.1317,3.1337,3.1344,3.1352,3.133,3.1416,3.1424,3.1432,3.1458,3.1468,3.134,3.134,3.134,3.1339,0,3.1268,3.1293,3.1323,3.1333,3.1345,3.1379,3.1362,3.1377,3.136,3.1352,3.1389,3.1389,3.1404,3.1415,3.1399,3.1459,3.1446,3.142,3.138,3.1448,3.1471,3.1481,3.1346,3.1344,3.1343,3.1342,0,0,3.1389,3.1385,3.1396,3.1399,3.14,3.1419,3.145,3.1465,3.1477,3.1486,3.151,3.1539,3.1515,3.1523,3.1507,3.1531,3.1593,3.1502,3.1501,3.1517,3.1656,3.1674,3.1686,3.1578,3.1579,3.1581,3.1655,0,3.1468,3.1521,3.1502,3.1555,3.1577,3.1543,3.1569,3.1573,3.1566,3.1583,3.1575,3.1595,3.1563,3.1567,3.1589,3.1581,3.1621,3.1576,3.1599,3.16,3.1596,3.1698,3.1718,3.1787,3.1664,3.1666,3.1667,0,3.1568,3.1579,3.1634,3.163,3.1638,3.1663,3.1673,3.1691,3.1694,3.1687,3.1694,3.1673,3.1702,3.1663,3.1702,3.1672,3.168,3.1678,3.168,3.168,3.1636,3.1699,3.181,3.1819,3.1682,3.1681,3.168,0,3.1647,3.1676,3.1712,3.1716,3.1712,3.173,3.1729,3.173,3.1739,3.1749,3.1754,3.1768,3.1775,3.1785,3.1768,3.1741,3.1809,3.1768,3.1802,3.1803,3.1817,3.1816,3.1928,3.1826,3.1826,3.1825,3.1825,0,3.1737,3.1772,3.1747,3.1769,3.1806,3.1784,3.1821,3.1817,3.1817,3.1837,3.1809,3.1828,3.1805,3.1822,3.1809,3.1842,3.1846,3.184,3.1836,3.1841,3.1842,3.1845,3.1839,3.1828,3.1828,3.1827,3.1827,0,3.1831,3.1816,3.1853,3.1846,3.1845,3.1872,3.1866,3.1886,3.1876,3.1902,3.1906,3.1892,3.191,3.1894,3.1912,3.1903,3.1946,3.1936,3.1945,3.1941,3.1975,3.1971,3.2092,3.2106,3.1997,3.1998,3.1999,0,3.1889,3.1914,3.1909,3.192,3.1921,3.1939,3.1948,3.1927,3.1937,3.1941,3.196,3.1976,3.1987,3.2017,3.2008,3.2021,3.201,3.2051,3.2011,3.2016,3.2008,3.2005,3.2007,3.2059,3.206,3.2061,3.2062,0,3.1991,3.1982,3.1995,3.2006,3.2017,3.2025,3.2031,3.2041,3.2019,3.2032,3.205,3.2058,3.2076,3.2091,3.2101,3.21,3.2077,3.2075,3.2083,3.2088,3.2091,3.2087,3.1965,3.2071,3.207,3.207,3.2069,3.2069,3.2067,3.2087,3.2086,3.2101,3.2103,3.2108,3.2125,3.2118,3.2132,3.2144,3.213,3.2152,3.2152,3.2163,3.2164,3.218,3.2162,3.2175,3.2178,3.218,3.2184,3.209,3.2182,3.2182,3.2181,3.2181,3.2181,0,3.2165,3.2163,3.2177,3.2185,3.2197,3.2174,3.2178,3.219,3.2208,3.2211,3.2222,3.2241,3.2255,3.2247,3.2259,3.2273,3.2263,3.2277,3.2275,3.2274,3.22,3.2191,3.2285,3.2285,3.2285,3.2285,3.2285,3.2285,3.2218,3.225,3.224,3.2272,3.2269,3.2289,3.2293,3.2297,3.2298,3.2321,3.2332,3.2326,3.2324,3.2335,3.2347,3.2344,3.2349,3.2366,3.236,3.229,3.228,3.227,3.2261,3.2368,3.2368,3.2432,3.2432,3.2433]}]]